Location: Austin
(30.3000°N, 97.7500°W)
Time: 07:00:04
(UTC-05:00)

CZ-2D R/B - Pass Details

Date: 19 September 2023
Orbit: 545 x 625 km, 98.0° (Epoch: 25 September)

Event Time Altitude Azimuth Distance (km) Brightness Sun altitude
Rises 06:18:22 0° 11° (N) 2,841 7.2 -13.5°
Reaches altitude 10° 06:20:31 10° 10° (N) 1,948 6.4 -13.1°
Maximum altitude 06:24:46 84° 285° (WNW) 618 3.5 -12.2°
Drops below altitude 10° 06:29:04 10° 195° (SSW) 1,974 5.9 -11.3°
Sets 06:31:16 0° 195° (SSW) 2,883 6.8 -10.8°
